RH
48 43 44 41 40 40 42 46 47 44 42 39 37 35 33 30 30 29 26 29 32 35 34 35 34 32 33 31 28 25 24 22 20 19 18 18 16 15 15 14 16 18 17 20 18
39 40 40 37 36 34 34 37 38 36 37 36 34 33 31 29 28 27 25 28 32 34 33 30 26 24 22 20 19 18 16 14 13 13 14 15 13 13 14 15 15 14 16 17 18
43 41 39 37 37 33 32 31 29 30 32 33 33 33 30 28 27 23 20 21 22 26 29 29 25 23 21 19 16 14 12 12 12 12 12 12 13 14 14 18 18 19 21 25 28
34 32 30 28 29 30 31 29 26 26 27 31 34 32 29 25 25 25 18 16 16 16 19 22 23 22 19 16 14 14 15 15 15 16 15 14 14 18 17 18 20 23 31 32 42
28 26 24 22 22 21 20 20 20 22 23 22 24 28 26 25 21 21 21 19 16 15 14 16 15 14 14 16 19 20 19 18 16 16 17 19 22 20 24 28 31 39 37 37 42
22 22 21 20 19 20 20 19 19 20 19 20 21 19 22 24 22 17 13 14 15 14 13 13 15 16 19 22 21 19 17 17 20 23 23 22 44 30 37 41 40 43 39 39 33
26 23 21 20 18 17 16 15 16 17 17 18 19 19 19 18 16 14 13 13 13 13 13 16 18 21 22 22 20 17 17 26 27 30 42 36 50 39 35 38 39 36 30 27 26
20 19 18 20 20 19 17 16 15 13 14 14 14 14 16 17 16 14 16 16 16 17 17 19 21 23 22 19 17 18 27 33 45 52 56 53 53 50 42 38 32 26 23 17 14
22 26 26 25 32 35 27 20 15 14 13 13 13 13 13 13 14 16 19 20 19 19 20 22 24 22 17 16 17 28 34 46 66 68 59 47 41 42 41 32 20 15 11 9 9
29 30 31 51 53 38 26 19 18 15 12 12 14 15 17 16 14 18 18 23 24 22 22 26 22 18 16 18 29 32 55 76 67 61 50 44 43 44 33 20 13 9 8 7 6
32 36 60 49 23 11 10 9 9 12 15 14 12 13 16 17 18 17 18 24 24 24 25 26 20 18 17 29 44 68 74 69 55 48 44 43 46 33 19 10 10 8 6 6 6
34 59 46 24 11 9 9 8 9 9 12 14 15 15 14 17 19 18 19 25 26 26 27 22 20 18 23 37 59 69 63 54 54 48 44 43 40 24 14 9 8 6 6 6 5
54 56 41 17 11 9 9 9 9 9 10 13 18 18 18 18 18 20 20 24 28 27 24 20 19 22 37 52 70 74 54 52 48 45 40 48 40 23 16 8 7 8 8 6 4
55 46 42 17 13 11 9 10 10 10 10 11 15 21 21 19 20 19 22 28 28 25 23 20 22 38 65 83 68 61 52 50 45 37 48 51 29 29 17 10 8 8 7 5 4
51 48 47 19 17 14 14 11 11 11 12 12 14 19 21 17 18 22 28 30 28 24 20 21 32 76 82 71 61 55 51 43 45 44 60 61 32 34 16 10 8 7 8 6 4
50 49 51 25 19 18 15 15 13 12 13 14 15 21 23 19 20 26 30 30 25 20 20 26 53 78 66 61 56 51 42 52 53 44 58 52 36 26 12 10 9 7 7 6 4
49 49 49 37 20 20 19 15 18 15 15 16 20 21 19 22 30 31 30 27 22 20 26 60 82 84 76 60 53 46 46 55 51 41 61 58 40 22 11 10 9 8 7 6 4
50 52 42 54 23 18 19 18 18 17 17 19 20 20 27 31 34 31 26 21 20 24 51 71 74 67 55 49 55 52 59 66 49 46 54 71 45 20 12 10 11 8 6 5 4
54 57 40 46 46 20 18 18 18 20 23 25 27 30 30 30 23 22 18 19 30 48 67 74 64 57 52 54 56 55 66 79 47 55 53 55 39 14 10 9 9 9 6 5 5
60 57 54 39 54 48 20 17 18 20 22 22 24 23 23 21 20 24 29 50 73 81 74 62 57 59 60 57 68 61 80 85 47 48 49 46 39 13 10 10 9 8 6 5 6
53 59 58 49 41 52 56 30 21 19 18 18 18 18 20 26 38 59 78 76 87 69 63 57 59 64 49 57 64 62 83 79 49 61 53 38 46 13 10 11 9 8 6 5 6
29 58 60 58 50 42 43 58 56 54 41 39 46 50 62 59 78 94 80 73 71 55 55 62 66 52 53 72 66 80 97 73 52 55 64 37 40 12 10 10 10 9 6 6 6
50 30 53 64 60 50 43 39 51 60 63 61 62 63 70 71 66 94 88 77 62 64 60 55 51 48 70 70 57 81 99 64 50 47 74 40 32 11 10 10 9 8 7 5 5
93 79 42 36 42 45 43 42 39 40 44 45 56 64 67 79 71 68 71 69 69 61 57 55 67 67 75 76 67 75 82 63 50 52 53 48 17 10 10 9 10 8 6 5 3
91 86 92 62 44 38 38 36 38 35 37 38 46 51 57 68 85 79 74 65 70 75 77 81 76 70 74 72 62 87 68 60 51 65 44 40 16 10 10 8 9 8 6 5 3
86 92 89 86 87 80 48 37 36 36 37 40 47 52 69 80 83 74 72 70 90 92 77 62 66 73 88 68 61 78 71 50 55 55 35 28 12 9 9 8 7 7 5 4 3
79 65 58 82 97 97 98 92 86 74 70 78 78 91 88 83 82 78 84 88 92 78 65 65 74 69 78 65 74 76 53 47 59 40 29 16 10 9 9 8 6 7 5 4 4
Wind_Speed
25 26 26 27 29 29 29 29 30 32 33 34 34 33 34 34 36 37 37 37 37 38 40 41 42 42 43 45 46 47 50 54 54 56 55 58 59 61 60 58 60 61 60 62 64
30 31 32 34 34 34 34 34 35 36 37 37 37 37 37 37 38 40 40 41 43 43 42 44 45 45 47 49 51 54 56 58 61 61 61 63 64 64 65 65 64 62 63 65 66
37 38 38 38 39 40 40 40 40 40 41 41 40 39 38 39 40 41 42 43 45 46 48 48 49 52 54 55 57 59 61 63 64 63 65 66 67 67 67 64 66 65 67 68 69
43 43 44 45 46 45 46 46 46 46 46 45 45 44 44 45 44 46 46 46 47 49 51 53 54 56 58 59 61 60 60 62 64 66 66 66 64 66 65 68 70 71 73 73 77
48 50 50 51 52 53 53 52 52 52 51 50 48 47 48 47 46 47 50 52 51 52 53 54 56 57 58 56 54 56 60 62 63 63 62 63 66 69 71 74 75 79 81 83 88
51 53 55 56 56 57 57 57 56 56 54 53 52 51 51 51 50 52 52 52 52 53 53 54 52 51 49 51 54 58 61 65 66 64 63 64 66 73 74 78 82 87 93 98 101
54 57 59 61 62 61 61 61 61 59 58 57 55 53 50 50 52 54 55 52 52 51 50 50 48 47 50 55 57 60 64 63 58 58 59 62 71 78 82 88 95 100 105 108 111
58 60 61 61 62 64 66 66 65 63 62 61 60 56 56 55 55 55 53 50 48 47 48 47 47 50 56 58 58 63 58 54 58 61 66 70 75 85 94 101 107 112 111 111 111
62 63 59 53 52 56 58 60 62 63 62 58 58 57 58 57 55 52 48 46 46 47 46 46 48 53 56 58 60 54 51 55 61 67 71 79 83 91 102 110 109 104 107 109 105
63 56 51 53 56 59 60 58 56 54 54 56 56 52 50 52 49 47 46 45 46 46 47 48 51 53 57 61 53 51 54 61 67 72 77 85 93 103 102 99 102 105 102 95 86
56 50 52 56 61 59 55 55 55 55 49 47 48 50 48 47 46 47 45 46 46 46 47 52 53 58 59 55 52 55 59 65 71 77 82 92 101 100 98 97 96 95 85 74 70
46 47 52 57 53 49 46 43 44 48 52 46 44 46 47 47 48 47 45 45 45 46 51 52 56 60 59 53 55 61 63 70 76 84 89 95 97 95 100 92 82 82 71 65 64
40 47 52 53 46 42 39 36 36 37 43 45 45 43 44 45 46 47 45 45 44 48 50 55 58 57 55 54 58 66 69 75 82 87 95 95 91 96 100 100 73 75 66 63 59
38 45 49 48 41 37 34 30 29 29 34 41 44 43 39 39 42 41 45 43 46 49 53 54 58 57 53 58 63 70 75 80 86 89 88 97 80 92 93 92 78 70 64 61 55
37 42 46 42 37 33 31 29 26 25 27 33 37 39 38 36 34 40 40 43 46 51 55 54 55 53 58 63 68 74 79 84 89 88 89 98 89 89 87 85 79 68 59 58 52
36 40 42 40 35 32 28 27 25 23 23 26 32 35 37 36 36 37 39 45 47 54 52 56 52 57 62 68 72 77 82 89 94 93 93 96 93 86 81 78 77 72 59 53 47
34 38 39 38 32 31 28 24 23 22 22 25 28 32 33 36 36 38 42 47 53 50 54 51 53 59 67 72 76 81 86 93 95 89 97 103 97 92 80 75 71 66 62 50 47
33 37 36 35 31 29 27 26 23 21 23 24 28 32 34 35 41 42 46 50 50 52 49 52 58 64 68 75 79 88 94 101 100 94 97 106 99 94 82 73 65 68 57 48 46
36 36 35 35 31 28 28 28 27 28 27 29 30 33 35 40 41 46 47 50 50 49 52 56 61 66 71 78 85 92 98 102 103 99 99 100 95 87 79 75 66 64 58 45 44
39 36 36 35 31 28 27 28 30 31 32 32 33 36 39 42 47 45 46 46 47 53 57 59 63 70 77 82 89 94 100 104 103 101 99 96 96 83 76 71 69 62 55 43 38
40 40 37 37 35 30 30 27 28 31 35 37 36 37 37 38 42 42 43 45 52 53 59 64 67 75 80 85 90 95 100 107 104 105 102 91 93 81 78 76 69 60 54 42 34
44 45 40 40 38 38 37 32 32 31 32 34 36 36 38 37 39 47 50 51 58 60 63 67 73 77 82 89 94 99 106 110 108 104 106 94 88 81 76 71 66 59 53 43 36
44 47 48 46 44 44 43 43 39 38 39 40 41 41 43 47 45 50 53 59 64 67 68 74 78 80 84 92 95 100 107 112 106 103 105 94 88 80 76 73 66 55 50 43 37
47 44 48 49 50 48 48 49 47 48 46 45 48 48 48 52 51 54 57 62 68 72 77 78 84 88 90 98 101 106 113 111 106 106 102 97 84 76 73 68 64 57 47 46 36
50 48 48 48 50 52 53 53 52 51 54 52 52 53 51 52 55 61 62 67 74 77 81 84 88 92 95 100 104 108 116 109 106 106 102 92 85 75 73 66 61 56 47 44 37
56 56 53 51 52 52 56 56 57 56 57 55 57 57 56 56 61 65 69 75 77 83 87 91 94 96 99 105 108 114 117 106 107 104 95 89 80 74 70 65 57 54 46 40 37
64 63 59 54 58 59 60 59 58 59 59 60 59 60 63 64 67 71 77 80 83 89 91 96 99 102 102 108 111 112 113 106 105 101 93 84 78 72 69 65 56 53 47 36 32
Wind_Direction
277 276 278 278 277 274 273 274 273 273 275 275 275 276 276 277 280 281 285 287 285 281 280 280 281 281 280 281 282 282 282 283 282 281 281 283 282 281 279 275 268 266 264 263 264
283 281 278 279 278 278 277 275 275 276 276 275 274 274 275 278 279 280 282 283 280 280 281 282 283 284 286 286 286 286 285 285 285 285 283 282 281 278 276 274 270 269 269 270 266
278 277 277 277 277 278 277 277 277 276 274 273 272 273 273 277 281 282 284 285 285 284 281 283 283 285 286 286 288 288 288 288 287 285 285 283 282 281 278 277 275 275 274 270 267
277 277 277 277 276 275 277 277 277 276 275 274 271 272 274 278 279 282 283 285 288 287 285 284 284 285 286 288 289 290 289 289 289 288 287 286 285 283 284 281 279 276 272 269 269
282 282 282 280 279 278 277 275 274 274 274 275 274 272 273 277 279 281 283 285 284 287 286 285 286 286 287 288 289 289 289 290 292 291 291 289 287 283 282 282 281 279 276 273 273
283 283 283 282 281 279 277 276 275 275 276 276 276 275 275 275 279 283 285 283 282 286 285 286 287 287 287 288 289 292 294 295 294 292 288 286 287 286 285 286 284 283 281 277 273
289 287 286 285 283 282 279 277 276 275 275 275 276 275 276 277 281 284 286 284 285 286 285 287 288 287 287 289 291 293 295 295 293 291 290 289 291 291 291 290 287 282 277 273 272
294 293 290 288 283 280 278 277 276 274 273 272 273 274 275 278 280 285 286 283 283 282 284 287 288 288 290 292 295 296 298 295 297 297 297 296 293 294 294 291 287 284 285 285 285
298 297 293 289 286 283 280 277 275 272 271 270 270 271 273 276 279 281 284 283 281 281 285 288 291 293 295 297 299 297 296 298 299 299 299 299 300 298 295 295 294 296 294 290 286
299 296 293 293 291 288 286 283 279 274 270 268 267 268 271 274 274 279 283 285 282 281 286 291 294 296 300 303 300 300 304 303 302 302 305 303 304 301 301 298 299 296 293 291 284
299 295 295 295 293 293 288 281 274 271 267 267 265 266 265 271 273 278 284 286 284 284 287 293 294 299 303 303 302 302 304 302 305 306 307 308 307 304 301 302 300 300 296 292 285
294 297 301 304 301 297 292 285 275 265 263 263 265 266 266 268 272 276 283 287 284 284 290 293 296 301 303 302 303 303 305 306 309 309 310 312 311 308 303 305 307 304 302 295 289
295 303 311 312 308 301 296 289 281 268 259 259 261 267 269 270 271 275 282 284 284 287 290 296 298 300 303 304 305 305 307 310 310 311 316 316 320 313 311 312 315 309 303 298 289
301 308 318 316 312 306 300 295 285 271 259 255 255 261 269 273 272 275 279 280 284 289 294 299 300 304 305 306 306 307 312 312 314 321 325 320 323 317 317 317 317 311 304 299 290
301 310 320 318 316 312 310 302 292 277 264 257 257 261 267 278 274 277 278 282 288 292 298 301 302 303 304 305 308 312 313 315 319 329 331 324 325 323 320 319 314 313 311 303 292
302 311 320 322 316 313 309 304 297 286 274 262 259 261 269 277 277 278 281 286 291 296 299 301 301 303 306 308 312 315 315 319 327 331 330 327 324 322 321 321 317 317 313 304 292
300 310 318 324 315 311 309 306 299 290 282 272 264 269 274 278 278 281 286 290 294 297 300 301 301 302 308 311 314 316 318 323 331 335 331 330 328 321 322 323 321 313 311 305 290
293 304 312 319 319 304 299 298 299 296 291 281 276 278 281 281 283 286 289 291 293 296 297 301 305 307 310 313 317 319 323 326 334 335 333 330 330 324 324 322 320 313 314 304 288
285 295 304 313 318 311 295 291 292 291 288 287 286 285 284 284 285 288 290 292 296 298 302 306 308 310 313 316 320 323 324 325 334 335 333 332 329 325 324 325 322 318 314 305 288
280 286 296 303 312 314 304 290 286 286 285 285 285 285 285 285 288 293 295 298 300 303 306 307 310 314 317 321 321 325 325 325 335 333 333 334 332 328 325 325 323 320 314 304 288
277 279 286 294 299 305 306 303 297 289 286 285 285 285 287 290 292 294 297 300 301 302 305 310 314 316 318 321 323 325 324 327 334 330 331 332 332 328 329 326 325 322 314 302 286
277 278 280 285 291 296 294 297 297 293 290 289 290 290 291 290 294 298 299 301 301 304 309 311 314 316 321 320 323 325 324 327 333 330 331 329 331 327 329 325 324 321 313 300 285
288 280 280 281 284 289 291 291 290 292 293 294 294 295 295 296 298 297 300 302 304 306 310 312 313 316 321 319 323 324 323 329 332 330 330 328 330 327 329 326 325 322 312 300 287
284 288 285 283 283 284 287 289 289 290 289 291 291 293 294 295 297 297 300 302 304 308 312 315 315 317 318 319 324 324 323 329 330 329 327 328 329 328 328 326 324 321 311 299 288
279 280 283 284 284 284 285 286 288 290 291 291 291 291 293 294 297 300 303 307 309 310 311 312 313 316 318 318 322 324 325 329 328 328 326 328 328 328 327 325 324 320 308 300 292
271 274 278 281 285 287 285 286 288 287 289 289 289 289 292 295 297 300 303 305 306 308 310 311 313 316 317 319 323 323 323 329 328 325 326 326 328 327 327 324 323 320 309 305 291
270 273 276 279 281 284 285 287 287 288 288 289 290 292 295 296 298 300 301 303 305 307 308 310 312 314 318 319 321 322 324 328 328 323 324 324 326 327 327 324 325 322 313 307 290